DL9BGG-13 Weather Reports


time (UTC)temp
C
wind
direction
speed
KPH
gust
KPH
rain 1hr
cm
rain 24hr
cm
rain mn
cm
humidity
%
barometer
mb
20260901053241 16 247 183.5 0.0 0.05 0.94 0.00 92 1059.6
20260901052612 16 247 183.5 0.0 0.05 0.94 0.00 92 1059.6
20260901051942 16 247 183.5 0.0 0.05 0.94 0.00 92 1059.4
20260901051311 16 247 183.5 0.0 0.05 0.94 0.00 92 1059.4
20260901050645 16 247 183.5 0.0 0.00 0.89 0.00 92 1059.4
20260901050044 16 247 183.5 0.0 0.00 0.89 0.00 92 1059.4
20260901045439 16 247 9.7 0.0 0.00 0.89 0.00 92 1059.3
20260901045319 16 270 1.6 0.0 0.00 0.89 0.00 91 1059.3
20260901045214 16 247 8.0 0.0 0.00 0.89 0.00 91 1059.2
20260901045108 16 270 11.3 0.0 0.00 0.89 0.00 91 1059.3
20260901044959 16 225 6.4 0.0 0.00 0.89 0.00 91 1059.2
20260901044845 16 247 9.7 0.0 0.00 0.89 0.00 91 1059.2
20260901044738 16 270 8.0 0.0 0.00 0.89 0.00 91 1059.2
20260901044624 16 270 9.7 0.0 0.00 0.89 0.00 91 1059.2
20260901044502 16 270 11.3 0.0 0.00 0.89 0.00 91 1059.3
20260901044347 16 270 6.4 0.0 0.00 0.89 0.00 91 1059.3
20260901044234 16 270 0.0 0.0 0.00 0.89 0.00 91 1059.4
20260901044129 16 270 4.8 0.0 0.00 0.89 0.00 91 1059.3
20260901044020 16 247 1.6 0.0 0.00 0.89 0.00 91 1059.3
20260901043859 16 225 4.8 0.0 0.00 0.89 0.00 91 1059.2
20260901043743 16 270 8.0 0.0 0.00 0.89 0.00 91 1059.3
20260901043623 16 247 3.2 0.0 0.00 0.89 0.00 91 1059.2
20260901043511 16 247 3.2 0.0 0.00 0.89 0.00 91 1059.3
20260901043403 16 225 3.2 0.0 0.00 0.89 0.00 90 1059.2
20260901043250 16 247 0.0 0.0 0.00 0.89 0.00 90 1059.2
20260901043147 16 270 1.6 0.0 0.00 0.89 0.00 90 1059.3
20260901043038 16 270 6.4 0.0 0.00 0.89 0.00 90 1059.3
20260901042916 16 270 6.4 0.0 0.00 0.89 0.00 90 1059.2
20260901042754 16 247 0.0 0.0 0.00 0.89 0.00 90 1059.2
20260901042633 16 270 4.8 0.0 0.00 0.89 0.00 89 1059.2
20260901042512 16 270 1.6 0.0 0.00 0.89 0.00 89 1059.2
20260901042351 16 247 6.4 0.0 0.00 0.89 0.00 89 1059.1
20260901042237 16 202 0.0 0.0 0.00 0.89 0.00 89 1059.2
20260901042124 16 247 0.0 0.0 0.00 0.89 0.00 89 1059.2
20260901042011 16 225 4.8 0.0 0.00 0.89 0.00 89 1059.2
20260901041852 16 202 8.0 0.0 0.00 0.89 0.00 89 1059.2
20260901041745 16 202 0.0 0.0 0.00 0.89 0.00 89 1059.2
20260901041632 16 225 0.0 0.0 0.00 0.89 0.00 88 1059.1
20260901041510 16 225 0.0 0.0 0.00 0.89 0.00 88 1059.2
20260901041350 16 247 0.0 0.0 0.00 0.89 0.00 88 1059.2
20260901041244 16 247 0.0 0.0 0.00 0.89 0.00 88 1059.1
20260901041130 16 247 0.0 0.0 0.00 0.89 0.00 88 1059.2
20260901041011 16 270 3.2 0.0 0.00 0.89 0.00 88 1059.2
20260901040904 16 247 8.0 0.0 0.00 0.89 0.00 88 1059.2
20260901040755 16 247 4.8 0.0 0.00 0.89 0.00 88 1059.2
20260901040630 16 270 11.3 0.0 0.00 0.89 0.00 88 1059.2
20260901040508 17 292 4.8 0.0 0.00 0.89 0.00 87 1059.2
20260901040340 17 225 3.2 0.0 0.00 0.89 0.00 87 1059.2
20260901040219 17 292 3.2 0.0 0.00 0.89 0.00 87 1059.1
20260901040106 16 292 9.7 0.0 0.00 0.89 0.00 86 1059.1
20260901035953 16 247 3.2 0.0 0.00 0.89 0.00 86 1059.1
20260901035839 16 247 12.9 0.0 0.00 0.89 0.00 85 1059.0
20260901035718 16 270 9.7 0.0 0.00 0.89 0.00 85 1059.0
20260901035603 16 270 11.3 0.0 0.00 0.89 0.00 86 1059.0
20260901035448 16 292 0.0 0.0 0.00 0.89 0.00 86 1059.0
20260901035320 17 315 6.4 0.0 0.00 0.89 0.00 86 1059.0
20260901035207 17 292 8.0 0.0 0.00 0.89 0.00 86 1059.0
20260901035102 17 270 4.8 0.0 0.00 0.89 0.00 87 1058.9
20260901034941 17 270 0.0 0.0 0.00 0.89 0.00 87 1058.9
20260901034829 17 292 8.0 0.0 0.00 0.89 0.00 87 1059.0
20260901034700 17 292 4.8 0.0 0.00 0.89 0.00 87 1059.0
20260901034539 17 270 8.0 0.0 0.00 0.89 0.00 87 1059.0
20260901034416 17 270 1.6 0.0 0.00 0.89 0.00 87 1059.0
20260901034311 17 315 6.4 0.0 0.00 0.89 0.00 87 1059.0
20260901034157 17 270 3.2 0.0 0.00 0.89 0.00 87 1059.0
20260901034044 17 270 6.4 0.0 0.00 0.89 0.00 87 1058.9
20260901033917 17 270 0.0 0.0 0.00 0.89 0.00 87 1059.0
20260901033812 17 270 8.0 0.0 0.00 0.89 0.00 86 1059.0
20260901033704 17 270 9.7 0.0 0.00 0.89 0.00 86 1059.0
20260901033552 17 270 6.4 0.0 0.00 0.89 0.00 86 1059.0
20260901033438 17 270 8.0 0.0 0.00 0.89 0.00 86 1059.0
20260901033317 17 270 0.0 0.0 0.00 0.89 0.00 86 1059.0
20260901033205 17 292 6.4 0.0 0.00 0.89 0.00 85 1059.0
20260901033057 17 292 9.7 0.0 0.00 0.89 0.00 85 1059.0
20260901032952 17 292 9.7 0.0 0.00 0.89 0.00 85 1059.0
20260901032845 17 292 9.7 0.0 0.00 0.89 0.00 85 1059.0
20260901032716 17 292 9.7 0.0 0.00 0.89 0.00 85 1058.9
20260901032603 17 315 0.0 0.0 0.00 0.89 0.00 85 1058.9
20260901032456 17 315 8.0 0.0 0.00 0.89 0.00 85 1058.9
20260901032335 17 292 4.8 0.0 0.00 0.89 0.00 85 1059.0
20260901032223 17 292 9.7 0.0 0.00 0.89 0.00 85 1058.9
20260901032116 17 292 11.3 0.0 0.00 0.89 0.00 85 1058.9
20260901032003 17 247 0.0 0.0 0.00 0.89 0.00 85 1058.9
20260901031850 17 270 3.2 0.0 0.00 0.89 0.00 85 1058.9
20260901031736 17 337 9.7 0.0 0.00 0.89 0.00 85 1058.9
20260901031623 17 270 8.0 0.0 0.00 0.89 0.00 86 1058.8
20260901031509 17 292 9.7 0.0 0.00 0.89 0.00 86 1058.8
20260901031403 17 0 9.7 0.0 0.00 0.89 0.00 85 1058.9
20260901031256 17 247 4.8 0.0 0.00 0.89 0.00 85 1058.9
20260901031143 17 292 0.0 0.0 0.00 0.89 0.00 85 1058.8
20260901031021 17 270 4.8 0.0 0.00 0.89 0.00 85 1058.8
20260901030908 17 315 3.2 0.0 0.00 0.89 0.00 85 1058.8
20260901030802 17 315 9.7 0.0 0.00 0.89 0.00 85 1058.8
20260901030657 17 337 4.8 0.0 0.00 0.89 0.00 85 1058.8
20260901030543 17 315 3.2 0.0 0.00 0.89 0.00 85 1058.8
20260901030431 17 315 6.4 0.0 0.00 0.89 0.00 85 1058.8
20260901030326 17 292 4.8 0.0 0.00 0.89 0.00 85 1058.8
20260901030211 17 337 8.0 0.0 0.00 0.89 0.00 85 1058.7
20260901030058 17 292 6.4 0.0 0.00 0.89 0.00 85 1058.8
20260901025953 17 292 4.8 0.0 0.00 0.89 0.00 85 1058.8
20260901025847 17 292 14.5 0.0 0.00 0.89 0.00 85 1058.7
20260901025742 17 337 8.0 0.0 0.00 0.89 0.00 85 1058.8
20260901025621 17 292 3.2 0.0 0.00 0.89 0.00 85 1058.8
20260901025508 17 247 8.0 0.0 0.00 0.89 0.00 85 1058.9
20260901025354 17 247 9.7 0.0 0.00 0.89 0.00 86 1058.9
20260901025241 17 315 12.9 0.0 0.00 0.89 0.00 86 1058.9
20260901025119 17 315 14.5 0.0 0.00 0.89 0.00 86 1058.9
20260901025006 17 315 12.9 0.0 0.00 0.89 0.00 86 1058.9
20260901024844 17 292 11.3 0.0 0.00 0.89 0.00 86 1058.8
20260901024726 17 337 6.4 0.0 0.00 0.89 0.00 86 1058.9
20260901024619 17 315 6.4 0.0 0.00 0.89 0.00 86 1058.8
20260901024505 17 337 11.3 0.0 0.00 0.89 0.00 86 1058.8
20260901024344 17 292 4.8 0.0 0.00 0.89 0.00 85 1058.9
20260901024231 17 315 11.3 0.0 0.00 0.89 0.00 85 1058.9
20260901024127 17 315 4.8 0.0 0.00 0.89 0.00 85 1058.8
20260901024013 17 270 11.3 0.0 0.00 0.89 0.00 85 1058.8
20260901023901 17 270 12.9 0.0 0.00 0.89 0.00 85 1058.9
20260901023755 17 247 9.7 0.0 0.00 0.89 0.00 85 1058.9
20260901023633 17 315 9.7 0.0 0.00 0.89 0.00 84 1058.8
20260901023527 17 315 9.7 0.0 0.00 0.89 0.00 84 1058.8
20260901023421 17 337 6.4 0.0 0.00 0.89 0.00 84 1058.8
20260901023315 17 292 12.9 0.0 0.00 0.89 0.00 84 1058.9
20260901023209 17 270 3.2 0.0 0.00 0.89 0.00 84 1058.9
20260901023021 17 315 183.5 0.0 0.00 0.89 0.00 84 1058.7
20260901022407 17 315 183.5 0.0 0.00 0.89 0.00 84 1058.8
20260901021752 17 315 183.5 0.0 0.00 0.89 0.00 84 1058.8
20260901021200 17 315 183.5 0.0 0.00 0.89 0.00 84 1058.7
20260901020543 17 315 183.5 0.0 0.00 0.89 0.00 85 1058.7
20260901015956 17 315 183.5 0.0 0.00 0.94 0.00 85 1058.7
20260901015412 17 315 183.5 0.0 0.00 0.94 0.00 85 1058.7
20260901014808 17 315 183.5 0.0 0.00 0.94 0.00 85 1058.7
20260901014144 17 315 183.5 0.0 0.00 0.94 0.00 85 1058.7
20260901013530 17 315 183.5 0.0 0.00 0.94 0.00 86 1058.5
20260901012916 17 315 183.5 0.0 0.00 0.94 0.00 85 1058.3
20260901012309 17 315 183.5 0.0 0.00 0.94 0.00 86 1058.4
20260901011704 17 315 183.5 0.0 0.00 0.94 0.00 86 1058.4
20260901011050 17 315 183.5 0.0 0.00 0.94 0.00 86 1058.4
20260901010443 17 315 183.5 0.0 0.00 0.94 0.00 86 1058.3
20260901005514 17 315 183.5 0.0 0.00 0.99 0.00 86 1058.2
20260901004901 17 315 183.5 0.0 0.00 0.99 0.00 87 1058.2
20260901004246 17 315 183.5 0.0 0.00 0.99 0.00 87 1058.2
20260901003632 17 315 183.5 0.0 0.00 0.99 0.00 87 1058.1
20260901003019 17 315 183.5 0.0 0.00 0.99 0.00 87 1058.1
20260901002405 17 315 183.5 0.0 0.00 0.99 0.00 88 1058.1
20260901001745 17 315 183.5 0.0 0.00 0.99 0.00 89 1058.1
20260901001121 17 315 183.5 0.0 0.00 0.99 0.00 90 1058.0
20260901000516 17 315 183.5 0.0 0.00 0.99 0.00 90 1058.0
20260831235907 17 315 183.5 0.0 0.05 0.99 0.00 90 1057.9
20260831235251 17 315 183.5 0.0 0.05 0.99 0.00 90 1058.0
20260831234638 16 315 183.5 0.0 0.05 0.99 0.00 90 1057.9
20260831234041 16 315 183.5 0.0 0.05 0.99 0.00 90 1057.9
20260831233411 16 315 183.5 0.0 0.05 0.99 0.00 90 1057.8
20260831232749 16 315 183.5 0.0 0.05 0.99 0.00 89 1057.8
20260831232111 16 315 183.5 0.0 0.05 0.99 0.00 89 1057.9
20260831231459 16 315 183.5 0.0 0.05 0.99 0.00 89 1057.8
20260831230844 16 315 183.5 0.0 0.05 0.99 0.00 89 1057.8
20260831230254 17 315 183.5 0.0 0.05 0.99 0.00 91 1057.8
20260831225646 16 315 183.5 0.0 0.00 0.94 0.00 91 1057.6
20260831225038 16 315 183.5 0.0 0.00 0.94 0.00 91 1057.6
20260831224432 16 315 183.5 0.0 0.00 0.94 0.00 92 1057.5
20260831223833 16 315 183.5 0.0 0.00 0.94 0.00 92 1057.5
20260831223228 16 315 183.5 0.0 0.00 0.94 0.00 92 1057.5
20260831222606 16 315 183.5 0.0 0.00 0.94 0.00 91 1057.4
20260831222000 16 315 183.5 0.0 0.00 0.94 0.00 91 1057.4
20260831221416 16 315 183.5 0.0 0.00 0.94 0.00 91 1057.3
20260831220833 16 315 8.0 0.0 0.00 0.94 0.00 91 1057.3
20260831220701 16 292 6.4 0.0 0.00 0.94 0.00 91 1057.4
20260831220556 16 247 12.9 0.0 0.00 0.94 0.00 91 1057.4
20260831220449 16 292 9.7 0.0 0.00 0.94 0.00 91 1057.4
20260831220343 16 270 4.8 0.0 0.00 0.94 0.00 91 1057.4
20260831220222 16 292 0.0 0.0 0.00 0.94 0.00 91 1057.3
20260831220108 16 315 8.0 0.0 0.00 0.94 0.00 90 1057.4
20260831215954 16 292 11.3 0.0 0.00 0.94 0.00 90 1057.3
20260831215848 16 315 4.8 0.0 0.00 0.94 0.00 90 1057.5
20260831215743 16 0 11.3 0.0 0.00 0.94 0.00 90 1057.4
20260831215621 16 315 11.3 0.0 0.00 0.94 0.00 90 1057.5
20260831215404 17 315 20.9 0.0 0.00 0.94 0.00 91 1057.5
20260831215207 16 292 12.9 0.0 0.00 0.94 0.00 92 1057.4
20260831215038 16 292 8.0 0.0 0.00 0.94 0.00 92 1057.3
20260831214844 16 247 16.1 0.0 0.00 0.94 0.00 92 1057.3
20260831214733 16 315 4.8 0.0 0.00 0.94 0.00 92 1057.3
20260831214618 16 337 6.4 0.0 0.00 0.94 0.00 92 1057.3
20260831214505 16 292 9.7 0.0 0.00 0.94 0.00 92 1057.4
20260831214354 16 292 8.0 0.0 0.00 0.94 0.00 92 1057.3
20260831214248 16 315 6.4 0.0 0.00 0.94 0.00 92 1057.3
20260831214135 16 292 11.3 0.0 0.00 0.94 0.00 92 1057.2
20260831214029 16 292 12.9 0.0 0.00 0.94 0.00 92 1057.1
20260831213924 16 337 4.8 0.0 0.00 0.94 0.00 92 1057.1
20260831213811 16 315 4.8 0.0 0.00 0.94 0.00 92 1057.1
20260831213704 16 292 6.4 0.0 0.00 0.94 0.00 92 1057.1
20260831213546 16 292 6.4 0.0 0.00 0.94 0.00 92 1057.2
20260831213441 16 292 6.4 0.0 0.00 0.94 0.00 92 1057.2
20260831213336 16 292 6.4 0.0 0.00 0.94 0.00 92 1057.1
20260831213230 16 315 9.7 0.0 0.00 0.94 0.00 92 1057.1
20260831213116 16 315 6.4 0.0 0.00 0.94 0.00 92 1057.2
20260831212947 16 270 11.3 0.0 0.00 0.94 0.00 92 1057.1
20260831212834 16 315 6.4 0.0 0.00 0.94 0.00 92 1057.1
20260831212721 16 292 8.0 0.0 0.00 0.94 0.00 92 1057.1
20260831212559 16 0 6.4 0.0 0.00 0.94 0.00 92 1057.1
20260831212430 16 292 11.3 0.0 0.00 0.94 0.00 92 1057.1
20260831212311 16 337 4.8 0.0 0.00 0.94 0.00 92 1057.1
20260831212205 16 292 3.2 0.0 0.00 0.94 0.00 92 1057.1
20260831212059 16 315 0.0 0.0 0.00 0.94 0.00 92 1057.1
20260831211946 16 337 6.4 0.0 0.00 0.94 0.00 92 1057.0
20260831211824 16 315 1.6 0.0 0.00 0.94 0.00 92 1057.1
20260831211704 16 292 6.4 0.0 0.00 0.94 0.00 92 1057.0
20260831211601 16 292 4.8 0.0 0.00 0.94 0.00 92 1057.0
20260831211453 16 292 9.7 0.0 0.00 0.94 0.00 92 1057.0
20260831211341 16 270 3.2 0.0 0.00 0.94 0.00 92 1057.0
20260831211219 16 292 3.2 0.0 0.00 0.94 0.00 92 1056.9
20260831211106 16 292 9.7 0.0 0.00 0.94 0.00 92 1056.9
20260831210938 16 337 9.7 0.0 0.00 0.94 0.00 92 1056.9
20260831210831 16 292 3.2 0.0 0.00 0.94 0.00 92 1056.9
20260831210710 16 337 4.8 0.0 0.00 0.94 0.00 92 1056.9
20260831210550 16 315 1.6 0.0 0.00 0.94 0.00 92 1056.8
20260831210437 16 270 6.4 0.0 0.00 0.94 0.00 92 1056.8
20260831210332 16 315 6.4 0.0 0.00 0.94 0.00 92 1056.8
20260831210226 16 270 6.4 0.0 0.00 0.94 0.00 92 1056.8
20260831210113 16 292 9.7 0.0 0.00 0.94 0.00 92 1056.9
20260831205953 16 270 6.4 0.0 0.00 0.94 0.00 93 1056.8
20260831205838 16 315 3.2 0.0 0.00 0.94 0.00 92 1056.7
20260831205725 16 292 6.4 0.0 0.00 0.94 0.00 92 1056.7
20260831205604 16 292 3.2 0.0 0.00 0.94 0.00 92 1056.7
20260831205452 16 315 4.8 0.0 0.00 0.94 0.00 92 1056.8
20260831205339 16 315 11.3 0.0 0.00 0.94 0.00 92 1056.8
20260831205217 16 315 8.0 0.0 0.00 0.94 0.00 92 1056.7
20260831205055 16 270 4.8 0.0 0.00 0.94 0.00 92 1056.7
20260831204934 16 292 4.8 0.0 0.00 0.94 0.00 93 1056.7
20260831204815 16 315 4.8 0.0 0.00 0.94 0.00 93 1056.7
20260831204708 16 292 3.2 0.0 0.00 0.94 0.00 93 1056.7
20260831204556 16 315 4.8 0.0 0.00 0.94 0.00 93 1056.6
20260831204449 16 292 9.7 0.0 0.00 0.94 0.00 93 1056.6
20260831204330 16 337 12.9 0.0 0.00 0.94 0.00 93 1056.6
20260831204200 16 0 0.0 0.0 0.00 0.94 0.00 93 1056.6
20260831204054 16 22 3.2 0.0 0.00 0.94 0.00 93 1056.6
20260831203941 16 247 3.2 0.0 0.05 0.94 0.00 93 1056.5
20260831203819 16 315 19.3 0.0 0.05 0.94 0.00 93 1056.4
20260831203650 16 247 6.4 0.0 0.05 0.94 0.00 93 1056.5
20260831203529 16 292 9.7 0.0 0.05 0.94 0.00 93 1056.4
20260831203407 16 270 4.8 0.0 0.05 0.94 0.00 93 1056.4
20260831203239 16 270 9.7 0.0 0.05 0.94 0.00 93 1056.4
20260831203117 16 315 11.3 0.0 0.05 0.94 0.00 93 1056.3
20260831203007 16 292 9.7 0.0 0.05 0.94 0.00 93 1056.4
20260831202900 16 315 3.2 0.0 0.05 0.94 0.00 93 1056.3
20260831202754 16 292 12.9 0.0 0.05 0.94 0.00 93 1056.3
20260831202641 16 315 6.4 0.0 0.05 0.94 0.00 93 1056.3
20260831202519 16 337 6.4 0.0 0.05 0.94 0.00 93 1056.3
20260831202350 16 315 14.5 0.0 0.10 0.94 0.00 93 1056.3
20260831202229 16 315 11.3 0.0 0.10 0.94 0.00 93 1056.2
20260831202108 16 315 4.8 0.0 0.10 0.94 0.00 93 1056.2
20260831201946 16 270 14.5 0.0 0.10 0.94 0.00 93 1056.2
20260831201819 16 292 6.4 0.0 0.10 0.94 0.00 93 1056.2
20260831201704 16 315 4.8 0.0 0.10 0.94 0.00 93 1056.2
20260831201543 16 292 9.7 0.0 0.10 0.94 0.00 93 1056.2
20260831201429 16 315 9.7 0.0 0.10 0.94 0.00 93 1056.0
20260831201308 16 292 9.7 0.0 0.10 0.94 0.00 93 1056.1
20260831201139 16 270 6.4 0.0 0.10 0.94 0.00 93 1056.1
20260831201020 16 315 8.0 0.0 0.10 0.94 0.00 93 1056.0
20260831200904 16 292 4.8 0.0 0.10 0.94 0.00 93 1056.0
20260831200746 16 337 3.2 0.0 0.10 0.94 0.00 93 1056.0
20260831200638 16 315 12.9 0.0 0.10 0.94 0.00 93 1056.1
20260831200509 16 315 8.0 0.0 0.10 0.94 0.00 93 1056.0
20260831200356 16 292 8.0 0.0 0.10 0.94 0.00 93 1056.0
20260831200243 16 315 6.4 0.0 0.10 0.94 0.00 93 1056.0
20260831200129 16 337 4.8 0.0 0.10 0.94 0.00 93 1056.0
20260831200009 16 270 8.0 0.0 0.10 0.94 0.00 93 1055.9
20260831195847 16 292 9.7 0.0 0.10 0.94 0.00 93 1055.9
20260831195726 16 315 0.0 0.0 0.10 0.94 0.00 93 1055.9
20260831195613 16 315 6.4 0.0 0.10 0.94 0.00 93 1055.9
20260831195502 16 292 4.8 0.0 0.10 0.94 0.00 93 1055.9
20260831195354 16 292 0.0 0.0 0.10 0.94 0.00 93 1055.9
20260831195234 16 337 14.5 0.0 0.10 0.94 0.00 93 1055.9
20260831195128 16 0 6.4 0.0 0.10 0.94 0.00 93 1055.8
20260831195007 16 270 11.3 0.0 0.10 0.94 0.00 93 1055.8
20260831194847 16 315 12.9 0.0 0.10 0.94 0.00 93 1055.7
20260831194740 16 315 9.7 0.0 0.15 0.94 0.00 92 1055.7
20260831194622 16 0 12.9 0.0 0.15 0.94 0.00 92 1055.8
20260831194513 16 292 6.4 0.0 0.15 0.94 0.00 92 1055.7
20260831194353 16 337 8.0 0.0 0.15 0.94 0.00 92 1055.7
20260831194234 16 292 6.4 0.0 0.15 0.94 0.00 92 1055.7
20260831194127 16 292 20.9 0.0 0.15 0.94 0.00 92 1055.7
20260831194006 16 315 22.5 0.0 0.10 0.89 0.00 92 1055.7
20260831193852 16 292 6.4 0.0 0.10 0.89 0.00 92 1055.6
20260831193734 16 315 11.3 0.0 0.10 0.89 0.00 92 1055.6
20260831193627 16 337 12.9 0.0 0.10 0.89 0.00 92 1055.6
20260831193514 16 315 8.0 0.0 0.10 0.89 0.00 92 1055.6
20260831193352 16 225 9.7 0.0 0.10 0.89 0.00 92 1055.6
20260831193240 16 0 17.7 0.0 0.10 0.89 0.00 92 1055.6
20260831193127 16 0 0.0 0.0 0.10 0.89 0.00 92 1055.6
20260831193020 16 292 9.7 0.0 0.10 0.89 0.00 92 1055.6
20260831192901 16 292 32.2 0.0 0.10 0.89 0.00 92 1055.5
20260831192749 16 292 9.7 0.0 0.10 0.89 0.00 92 1055.5
20260831192641 16 337 9.7 0.0 0.05 0.84 0.00 92 1055.5
20260831192528 16 292 9.7 0.0 0.05 0.84 0.00 92 1055.5
20260831192410 16 270 6.4 0.0 0.05 0.84 0.00 92 1055.3
20260831192305 16 270 9.7 0.0 0.05 0.84 0.00 92 1055.4
20260831192142 16 315 9.7 0.0 0.05 0.84 0.00 92 1055.3
20260831192035 16 337 8.0 0.0 0.05 0.84 0.00 92 1055.2
20260831191909 16 270 9.7 0.0 0.05 0.84 0.00 92 1055.3
20260831191754 16 315 0.0 0.0 0.05 0.84 0.00 92 1055.2
20260831191649 16 337 11.3 0.0 0.05 0.84 0.00 92 1055.2
20260831191519 16 315 17.7 0.0 0.05 0.84 0.00 92 1055.2
20260831191406 16 337 9.7 0.0 0.05 0.84 0.00 92 1055.2
20260831191252 16 315 12.9 0.0 0.05 0.84 0.00 92 1055.2
20260831191134 16 292 11.3 0.0 0.05 0.84 0.00 92 1055.2
20260831191026 16 292 8.0 0.0 0.05 0.84 0.00 92 1055.1
20260831190913 16 315 3.2 0.0 0.05 0.84 0.00 92 1055.1
20260831190801 16 270 9.7 0.0 0.05 0.84 0.00 92 1055.1
20260831190639 16 0 8.0 0.0 0.05 0.84 0.00 92 1055.1
20260831190520 16 315 4.8 0.0 0.05 0.84 0.00 92 1055.1
20260831190405 16 315 0.0 0.0 0.05 0.84 0.00 92 1055.1
20260831190253 16 292 9.7 0.0 0.05 0.84 0.00 92 1055.0
20260831190146 16 315 12.9 0.0 0.05 0.84 0.00 92 1055.0
20260831190033 16 315 9.7 0.0 0.05 0.84 0.00 92 1055.1
20260831185905 16 292 9.7 0.0 0.05 0.84 0.00 92 1055.0
20260831185800 16 292 0.0 0.0 0.05 0.84 0.00 92 1055.0
20260831185646 16 337 8.0 0.0 0.05 0.84 0.00 92 1055.0
20260831185525 16 292 6.4 0.0 0.05 0.84 0.00 92 1054.9
20260831185414 16 315 0.0 0.0 0.05 0.84 0.00 92 1054.8
20260831185309 16 315 6.4 0.0 0.05 0.84 0.00 92 1054.9
20260831185202 16 315 3.2 0.0 0.05 0.84 0.00 92 1054.9
20260831185049 16 315 17.7 0.0 0.00 0.79 0.00 91 1055.1
20260831184943 16 337 8.0 0.0 0.00 0.79 0.00 91 1054.9
20260831184837 16 315 17.7 0.0 0.00 0.79 0.00 91 1054.9
20260831184731 16 315 9.7 0.0 0.00 0.79 0.00 91 1054.8
20260831184625 16 292 14.5 0.0 0.00 0.79 0.00 91 1054.8
20260831184520 16 270 4.8 0.0 0.00 0.79 0.00 91 1054.8
20260831184406 16 315 9.7 0.0 0.00 0.79 0.00 91 1054.8
20260831184245 16 292 27.4 0.0 0.00 0.79 0.00 91 1054.7
20260831184139 16 292 14.5 0.0 0.00 0.79 0.00 91 1054.8
20260831184025 16 270 11.3 0.0 0.00 0.79 0.00 91 1054.6
20260831183917 16 315 9.7 0.0 0.10 0.79 0.00 91 1054.6
20260831183748 16 292 11.3 0.0 0.10 0.79 0.00 91 1054.6
20260831183636 16 292 12.9 0.0 0.10 0.79 0.00 91 1054.6
20260831183529 16 315 6.4 0.0 0.20 0.79 0.00 91 1054.5
20260831183423 16 0 3.2 0.0 0.20 0.79 0.00 91 1054.4
20260831183305 16 270 6.4 0.0 0.20 0.79 0.00 91 1054.4
20260831183157 16 225 4.8 0.0 0.25 0.79 0.00 91 1054.4
20260831183037 16 292 8.0 0.0 0.25 0.79 0.00 91 1054.4
20260831182931 16 337 1.6 0.0 0.25 0.79 0.00 91 1054.2
20260831182810 16 225 9.7 0.0 0.30 0.79 0.00 91 1054.3
20260831182648 16 315 11.3 0.0 0.30 0.79 0.00 91 1054.3
20260831182543 16 337 8.0 0.0 0.30 0.79 0.00 91 1054.3
20260831182436 16 247 16.1 0.0 0.30 0.79 0.00 91 1054.2
20260831182331 16 270 12.9 0.0 0.30 0.79 0.00 92 1054.2
20260831182225 16 315 11.3 0.0 0.30 0.79 0.00 92 1054.2
20260831182113 16 337 4.8 0.0 0.30 0.79 0.00 92 1054.2
20260831182007 16 292 16.1 0.0 0.30 0.79 0.00 92 1054.1
20260831181845 16 270 9.7 0.0 0.30 0.79 0.00 92 1054.2
20260831181733 16 315 11.3 0.0 0.30 0.79 0.00 92 1054.1
20260831181619 16 292 6.4 0.0 0.30 0.79 0.00 92 1054.1
20260831181507 16 315 20.9 0.0 0.30 0.79 0.00 92 1054.1
20260831181401 16 315 16.1 0.0 0.30 0.79 0.00 92 1054.1
20260831181250 16 315 20.9 0.0 0.30 0.79 0.00 92 1054.1
20260831181143 16 337 11.3 0.0 0.30 0.79 0.00 92 1054.1
20260831181022 16 292 4.8 0.0 0.30 0.79 0.00 92 1054.1
20260831180909 16 315 8.0 0.0 0.30 0.79 0.00 92 1054.1
20260831180755 16 292 11.3 0.0 0.30 0.79 0.00 92 1054.0
20260831180643 16 315 9.7 0.0 0.30 0.79 0.00 92 1054.0
20260831180539 16 247 14.5 0.0 0.30 0.79 0.00 92 1054.0
20260831180433 16 0 3.2 0.0 0.30 0.79 0.00 92 1054.0
20260831180328 16 337 6.4 0.0 0.30 0.79 0.00 92 1053.9
20260831180222 16 292 8.0 0.0 0.30 0.79 0.00 92 1053.9
20260831180111 16 315 16.1 0.0 0.30 0.79 0.00 92 1053.9
20260831175956 16 292 30.6 0.0 0.30 0.79 0.00 92 1054.0
20260831175835 16 337 9.7 0.0 0.30 0.79 0.00 92 1053.9
20260831175717 16 247 12.9 0.0 0.30 0.79 0.00 92 1053.9
20260831175609 16 270 11.3 0.0 0.30 0.79 0.00 92 1053.8
20260831175455 16 270 6.4 0.0 0.30 0.79 0.00 91 1053.8
20260831175334 16 292 0.0 0.0 0.30 0.79 0.00 91 1053.7
20260831175228 16 292 16.1 0.0 0.30 0.79 0.00 91 1053.8
20260831175116 16 292 9.7 0.0 0.30 0.79 0.00 91 1053.8
20260831174959 16 315 6.4 0.0 0.30 0.79 0.00 91 1053.8
20260831174846 16 270 8.0 0.0 0.30 0.79 0.00 91 1053.7
20260831174732 16 270 19.3 0.0 0.30 0.79 0.00 90 1053.6
20260831174620 16 315 11.3 0.0 0.30 0.79 0.00 90 1053.7
20260831174512 16 292 11.3 0.0 0.30 0.79 0.00 91 1053.7
20260831174350 16 225 8.0 0.0 0.25 0.74 0.00 91 1053.6
20260831174245 16 337 30.6 0.0 0.20 0.66 0.00 91 1053.7
20260831174138 16 315 8.0 0.0 0.20 0.66 0.00 90 1053.7
20260831174034 16 270 11.3 0.0 0.20 0.66 0.00 90 1053.6
20260831173928 16 247 14.5 0.0 0.20 0.61 0.00 90 1053.6
20260831173814 16 270 0.0 0.0 0.15 0.56 0.00 90 1053.6
20260831173702 16 247 9.7 0.0 0.15 0.56 0.00 89 1053.5
20260831173541 16 270 8.0 0.0 0.15 0.56 0.00 89 1053.5
20260831173436 16 225 17.7 0.0 0.15 0.56 0.00 89 1053.5
20260831173330 16 270 14.5 0.0 0.10 0.51 0.00 89 1053.6
20260831173209 16 315 11.3 0.0 0.10 0.51 0.00 89 1053.5
20260831173057 16 292 1.6 0.0 0.10 0.51 0.00 89 1053.5
20260831172950 16 292 3.2 0.0 0.05 0.46 0.00 89 1053.6
20260831172831 16 270 17.7 0.0 0.05 0.46 0.00 89 1053.5
20260831172724 16 202 14.5 0.0 0.05 0.46 0.00 89 1053.5
20260831172506 16 247 12.9 0.0 0.05 0.46 0.00 88 1053.4
20260831172339 16 247 12.9 0.0 0.05 0.46 0.00 88 1053.5
20260831172234 16 270 24.1 0.0 0.05 0.46 0.00 88 1053.5
20260831172121 16 292 11.3 0.0 0.05 0.46 0.00 88 1053.5
20260831172016 16 247 14.5 0.0 0.05 0.46 0.00 88 1053.4
20260831171911 16 337 14.5 0.0 0.05 0.46 0.00 88 1053.4
20260831171757 16 292 19.3 0.0 0.05 0.46 0.00 88 1053.4
20260831171651 16 270 8.0 0.0 0.05 0.46 0.00 88 1053.4
20260831171546 17 247 14.5 0.0 0.05 0.46 0.00 88 1053.3
20260831171433 17 292 14.5 0.0 0.05 0.46 0.00 89 1053.3
20260831171321 17 270 11.3 0.0 0.05 0.46 0.00 89 1053.3
20260831171214 17 337 11.3 0.0 0.05 0.46 0.00 89 1053.2
20260831171101 17 270 22.5 0.0 0.05 0.46 0.00 89 1053.3
20260831170940 17 270 24.1 0.0 0.05 0.46 0.00 89 1053.3
20260831170828 16 292 17.7 0.0 0.05 0.46 0.00 89 1053.2
20260831170705 16 292 9.7 0.0 0.05 0.46 0.00 90 1053.2
20260831170552 16 292 12.9 0.0 0.05 0.46 0.00 90 1053.2
20260831170423 16 270 16.1 0.0 0.05 0.46 0.00 90 1053.3
20260831170310 16 292 11.3 0.0 0.05 0.46 0.00 90 1053.3
20260831170205 16 247 11.3 0.0 0.05 0.46 0.00 90 1053.2
20260831170043 16 247 6.4 0.0 0.05 0.46 0.00 90 1053.4
20260831165923 16 315 17.7 0.0 0.05 0.46 0.00 90 1053.4
20260831165808 16 270 12.9 0.0 0.05 0.46 0.00 90 1053.3
20260831165639 16 247 22.5 0.0 0.05 0.46 0.00 89 1053.3
20260831165533 16 292 19.3 0.0 0.05 0.46 0.00 89 1053.4
20260831165428 16 270 8.0 0.0 0.05 0.46 0.00 89 1053.2
20260831165322 16 247 11.3 0.0 0.05 0.46 0.00 89 1053.4
20260831165155 16 270 8.0 0.0 0.10 0.46 0.00 89 1053.4
20260831165048 16 315 19.3 0.0 0.10 0.46 0.00 88 1053.4
20260831164935 16 247 17.7 0.0 0.10 0.46 0.00 88 1053.4
20260831164830 16 270 16.1 0.0 0.10 0.46 0.00 88 1053.3
20260831164710 16 270 9.7 0.0 0.20 0.46 0.00 88 1053.4
20260831164606 16 247 11.3 0.0 0.20 0.46 0.00 88 1053.3
20260831164459 16 225 9.7 0.0 0.20 0.46 0.00 87 1053.2
20260831164337 16 247 9.7 0.0 0.25 0.46 0.00 87 1053.3
20260831164218 16 270 12.9 0.0 0.20 0.41 0.00 86 1053.2
20260831164113 17 225 8.0 0.0 0.20 0.41 0.00 86 1053.2
20260831164007 17 292 12.9 0.0 0.20 0.41 0.00 86 1053.1
20260831163852 17 247 27.4 0.0 0.25 0.41 0.00 85 1053.1
20260831163746 17 292 9.7 0.0 0.25 0.41 0.00 84 1053.2
20260831163633 17 292 14.5 0.0 0.25 0.41 0.00 84 1053.0
20260831163528 17 292 19.3 0.0 0.25 0.41 0.00 84 1053.1
20260831163414 17 292 17.7 0.0 0.25 0.41 0.00 83 1053.1
20260831163255 17 292 9.7 0.0 0.25 0.41 0.00 83 1053.0
20260831163148 17 270 11.3 0.0 0.25 0.41 0.00 83 1053.1
20260831163035 17 270 17.7 0.0 0.25 0.41 0.00 83 1053.1
20260831162916 17 270 25.7 0.0 0.25 0.41 0.00 84 1053.0
20260831162801 17 270 12.9 0.0 0.25 0.41 0.00 84 1053.1
20260831162648 17 247 16.1 0.0 0.25 0.41 0.00 85 1053.1
20260831162541 17 292 8.0 0.0 0.25 0.41 0.00 85 1053.0
20260831162420 17 292 8.0 0.0 0.25 0.41 0.00 85 1053.0
20260831162258 17 270 9.7 0.0 0.25 0.41 0.00 85 1053.0
20260831162136 17 247 6.4 0.0 0.25 0.41 0.00 85 1053.0
20260831162030 17 292 12.9 0.0 0.25 0.41 0.00 85 1053.0
20260831161909 17 270 9.7 0.0 0.25 0.41 0.00 86 1053.0
20260831161803 17 247 8.0 0.0 0.25 0.41 0.00 86 1053.0
20260831161658 17 292 14.5 0.0 0.25 0.41 0.00 86 1053.0
20260831161552 17 270 17.7 0.0 0.25 0.41 0.00 86 1053.0
20260831161437 17 292 12.9 0.0 0.25 0.41 0.00 86 1053.0
20260831161326 17 270 22.5 0.0 0.25 0.41 0.00 86 1053.0
20260831161209 17 270 17.7 0.0 0.25 0.41 0.00 86 1053.0
20260831161059 17 270 24.1 0.0 0.25 0.41 0.00 86 1053.0
20260831160952 17 292 19.3 0.0 0.25 0.41 0.00 86 1052.9
20260831160838 17 247 17.7 0.0 0.25 0.41 0.00 87 1053.0
20260831160725 17 225 12.9 0.0 0.25 0.41 0.00 87 1053.0
20260831160620 17 247 6.4 0.0 0.25 0.41 0.00 87 1052.9
20260831160509 17 292 11.3 0.0 0.25 0.41 0.00 87 1052.9
20260831160402 17 315 16.1 0.0 0.25 0.41 0.00 87 1052.9
20260831160240 16 292 16.1 0.0 0.25 0.41 0.00 87 1052.9
20260831160128 16 270 14.5 0.0 0.25 0.41 0.00 87 1053.0
20260831160014 16 292 14.5 0.0 0.25 0.41 0.00 87 1052.9
20260831155853 16 247 9.7 0.0 0.25 0.41 0.00 87 1052.9
20260831155740 16 270 24.1 0.0 0.25 0.41 0.00 87 1052.8
20260831155626 16 315 4.8 0.0 0.25 0.41 0.00 86 1052.8
20260831155515 16 292 4.8 0.0 0.25 0.41 0.00 85 1052.9
20260831155408 16 292 14.5 0.0 0.25 0.41 0.00 85 1052.9
20260831155256 16 225 6.4 0.0 0.25 0.41 0.00 85 1052.9
20260831155142 16 247 8.0 0.0 0.20 0.36 0.00 84 1052.9
20260831155029 17 270 6.4 0.0 0.15 0.30 0.00 83 1052.9
20260831154915 17 270 8.0 0.0 0.15 0.30 0.00 82 1052.9
20260831154802 17 270 14.5 0.0 0.10 0.25 0.00 82 1052.9
20260831154641 17 270 14.5 0.0 0.10 0.25 0.00 82 1053.0
20260831154528 17 247 12.9 0.0 0.05 0.20 0.00 81 1052.9
20260831154424 17 247 4.8 0.0 0.05 0.20 0.00 81 1052.8
20260831154318 18 270 6.4 0.0 0.00 0.15 0.00 81 1052.7
20260831154213 17 225 0.0 0.0 0.00 0.15 0.00 81 1052.9
20260831154108 17 0 6.4 0.0 0.00 0.15 0.00 81 1052.7
20260831153938 17 247 8.0 0.0 0.00 0.15 0.00 81 1052.8
20260831153825 17 315 16.1 0.0 0.00 0.15 0.00 81 1052.6
20260831153720 17 292 9.7 0.0 0.00 0.15 0.00 81 1052.7
20260831153607 17 270 19.3 0.0 0.00 0.15 0.00 81 1052.7
20260831153446 17 247 22.5 0.0 0.00 0.15 0.00 81 1052.6
20260831153333 17 225 14.5 0.0 0.00 0.15 0.00 81 1052.5
20260831153212 17 270 9.7 0.0 0.00 0.15 0.00 81 1052.8
20260831153058 17 270 14.5 0.0 0.00 0.15 0.00 80 1052.6
20260831152945 17 292 0.0 0.0 0.00 0.15 0.00 80 1052.6
20260831152840 17 292 12.9 0.0 0.00 0.15 0.00 79 1052.7
20260831152735 17 135 0.0 0.0 0.00 0.15 0.00 79 1052.6
20260831152629 17 315 6.4 0.0 0.00 0.15 0.00 79 1052.5
20260831152522 17 292 4.8 0.0 0.00 0.15 0.00 79 1052.6
20260831152352 17 180 3.2 0.0 0.00 0.15 0.00 79 1052.6
20260831152239 17 247 14.5 0.0 0.00 0.15 0.00 78 1052.6
20260831152119 17 315 9.7 0.0 0.00 0.15 0.00 78 1052.4
20260831152004 17 270 6.4 0.0 0.00 0.15 0.00 78 1052.4
20260831151853 17 247 16.1 0.0 0.00 0.15 0.00 77 1052.6
20260831151738 17 270 9.7 0.0 0.00 0.15 0.00 76 1052.5
20260831151633 17 247 9.7 0.0 0.00 0.15 0.00 75 1052.5
20260831151512 17 225 14.5 0.0 0.00 0.15 0.00 74 1052.5
20260831151359 17 247 12.9 0.0 0.00 0.15 0.00 73 1052.5
20260831151245 17 247 12.9 0.0 0.00 0.15 0.00 73 1052.6
20260831151126 17 292 11.3 0.0 0.00 0.15 0.00 73 1052.7
20260831151022 18 225 14.5 0.0 0.00 0.15 0.00 73 1052.6
20260831150914 18 247 20.9 0.0 0.00 0.15 0.00 72 1052.6
20260831150800 18 247 24.1 0.0 0.00 0.15 0.00 72 1052.4
20260831150655 18 292 14.5 0.0 0.00 0.15 0.00 72 1052.5
20260831150541 18 270 9.7 0.0 0.00 0.15 0.00 71 1052.4
20260831150429 18 270 9.7 0.0 0.00 0.15 0.00 70 1052.5
20260831150315 19 247 17.7 0.0 0.00 0.15 0.00 68 1052.5
20260831150203 19 292 14.5 0.0 0.00 0.15 0.00 68 1052.5
20260831150057 19 247 12.9 0.0 0.00 0.15 0.00 69 1052.3
20260831145944 20 247 17.7 0.0 0.00 0.15 0.00 70 1052.3
20260831145834 20 270 9.7 0.0 0.00 0.15 0.00 70 1052.4
20260831145719 20 337 16.1 0.0 0.00 0.15 0.00 70 1052.3
20260831145613 20 292 9.7 0.0 0.00 0.15 0.00 70 1052.4
20260831145459 20 247 9.7 0.0 0.00 0.15 0.00 69 1052.3
20260831145339 20 270 9.7 0.0 0.00 0.15 0.00 69 1052.3
20260831145225 20 315 12.9 0.0 0.00 0.15 0.00 69 1052.3
20260831145106 20 337 16.1 0.0 0.00 0.15 0.00 69 1052.3
20260831144958 20 247 24.1 0.0 0.00 0.15 0.00 69 1052.4
20260831144839 20 270 14.5 0.0 0.00 0.15 0.00 69 1052.4
20260831144734 20 247 17.7 0.0 0.00 0.15 0.00 69 1052.3
20260831144620 20 270 6.4 0.0 0.00 0.15 0.00 69 1052.2
20260831144515 20 270 11.3 0.0 0.00 0.15 0.00 68 1052.2
20260831144353 20 315 4.8 0.0 0.00 0.15 0.00 68 1052.2
20260831144243 20 292 17.7 0.0 0.00 0.15 0.00 68 1052.2
20260831144136 20 270 20.9 0.0 0.00 0.15 0.00 68 1052.1
20260831144031 20 292 8.0 0.0 0.00 0.15 0.00 69 1052.3
20260831143918 20 270 9.7 0.0 0.00 0.15 0.00 69 1052.2
20260831143812 20 270 6.4 0.0 0.00 0.15 0.00 69 1052.2
20260831143651 20 337 6.4 0.0 0.00 0.15 0.00 69 1052.2
20260831143521 20 270 12.9 0.0 0.00 0.15 0.00 69 1052.1
20260831143408 20 270 20.9 0.0 0.00 0.15 0.00 70 1052.1
20260831143248 20 247 8.0 0.0 0.00 0.15 0.00 69 1052.1
20260831143136 20 270 9.7 0.0 0.00 0.15 0.00 69 1052.1
20260831143022 20 247 9.7 0.0 0.00 0.15 0.00 69 1052.0
20260831142917 20 247 8.0 0.0 0.00 0.15 0.00 68 1052.1
20260831142811 20 247 20.9 0.0 0.00 0.15 0.00 69 1052.1
20260831142700 20 270 20.9 0.0 0.00 0.15 0.00 69 1052.1
20260831142555 20 270 11.3 0.0 0.00 0.15 0.00 69 1052.0
20260831142448 20 270 8.0 0.0 0.00 0.15 0.00 70 1052.0
20260831142335 20 270 9.7 0.0 0.00 0.15 0.00 69 1052.1
20260831142230 20 225 9.7 0.0 0.00 0.15 0.00 69 1052.0
20260831142109 20 270 0.0 0.0 0.00 0.15 0.00 69 1052.0
20260831141955 20 292 9.7 0.0 0.00 0.15 0.00 68 1052.1
20260831141843 20 315 24.1 0.0 0.00 0.15 0.00 67 1052.1
20260831141737 20 270 16.1 0.0 0.00 0.15 0.00 67 1052.1
20260831141615 21 247 12.9 0.0 0.00 0.15 0.00 67 1052.1
20260831141455 21 270 17.7 0.0 0.00 0.15 0.00 68 1052.0
20260831141350 21 270 14.5 0.0 0.00 0.15 0.00 69 1052.1
20260831141245 21 202 6.4 0.0 0.00 0.15 0.00 69 1052.0
20260831141124 21 270 16.1 0.0 0.00 0.15 0.00 69 1052.1
20260831141010 21 202 11.3 0.0 0.00 0.15 0.00 69 1052.0
20260831140858 21 270 9.7 0.0 0.00 0.15 0.00 69 1052.1
20260831140745 21 225 9.7 0.0 0.00 0.15 0.00 68 1052.0
20260831140639 21 202 11.3 0.0 0.00 0.15 0.00 68 1052.0
20260831140526 21 247 11.3 0.0 0.00 0.15 0.00 68 1052.0
20260831140416 21 270 6.4 0.0 0.00 0.15 0.00 68 1052.0
20260831140308 21 225 11.3 0.0 0.00 0.15 0.00 67 1052.0
20260831140155 21 247 9.7 0.0 0.00 0.15 0.00 67 1052.0
20260831140050 21 247 9.7 0.0 0.00 0.15 0.00 67 1051.9
20260831135928 21 315 17.7 0.0 0.00 0.15 0.00 68 1051.9
20260831135815 21 315 0.0 0.0 0.00 0.15 0.00 68 1051.9
20260831135654 21 247 0.0 0.0 0.00 0.15 0.00 68 1051.9
20260831135534 21 270 6.4 0.0 0.00 0.15 0.00 67 1052.0
20260831135428 21 202 6.4 0.0 0.00 0.15 0.00 67 1051.9
20260831135314 21 270 12.9 0.0 0.00 0.15 0.00 68 1052.0
20260831135202 21 270 6.4 0.0 0.00 0.15 0.00 69 1052.1
20260831135049 20 225 4.8 0.0 0.00 0.15 0.00 68 1051.9
20260831134936 20 247 17.7 0.0 0.00 0.15 0.00 68 1052.0
20260831134822 20 180 9.7 0.0 0.00 0.15 0.00 68 1052.0
20260831134709 20 225 0.0 0.0 0.00 0.15 0.00 68 1051.9
20260831134557 20 225 3.2 0.0 0.00 0.15 0.00 68 1052.0
20260831134453 20 337 0.0 0.0 0.00 0.15 0.00 68 1051.9
20260831134338 20 202 11.3 0.0 0.00 0.15 0.00 68 1052.0
20260831134225 20 202 11.3 0.0 0.00 0.15 0.00 68 1052.1
20260831134121 20 225 11.3 0.0 0.00 0.15 0.00 67 1052.2
20260831134007 20 270 14.5 0.0 0.00 0.15 0.00 67 1052.1
20260831133846 20 270 19.3 0.0 0.00 0.15 0.00 67 1052.0
20260831133741 20 315 14.5 0.0 0.00 0.15 0.00 68 1052.1
20260831133636 20 247 9.7 0.0 0.00 0.15 0.00 68 1052.1
20260831133523 20 292 16.1 0.0 0.00 0.15 0.00 68 1052.0
20260831133416 20 270 16.1 0.0 0.00 0.15 0.00 68 1052.0
20260831133257 20 247 9.7 0.0 0.00 0.15 0.00 68 1052.1
20260831133151 20 270 9.7 0.0 0.00 0.15 0.00 68 1051.9
20260831133030 20 202 6.4 0.0 0.00 0.15 0.00 69 1051.9
20260831132925 20 202 9.7 0.0 0.00 0.15 0.00 69 1052.0
20260831132820 20 225 9.7 0.0 0.00 0.15 0.00 69 1051.9
20260831132716 20 225 9.7 0.0 0.00 0.15 0.00 69 1052.0
20260831132610 20 202 0.0 0.0 0.00 0.15 0.00 69 1051.9
20260831132505 20 270 14.5 0.0 0.00 0.15 0.00 69 1051.9
20260831132352 20 202 27.4 0.0 0.00 0.15 0.00 69 1051.9
20260831132240 20 270 11.3 0.0 0.00 0.15 0.00 69 1051.9
20260831132135 20 270 6.4 0.0 0.00 0.15 0.00 69 1051.9
20260831132029 20 270 11.3 0.0 0.00 0.15 0.00 69 1052.0
20260831131925 20 247 3.2 0.0 0.00 0.15 0.00 69 1051.9
20260831131819 20 270 9.7 0.0 0.00 0.15 0.00 69 1051.9
20260831131713 20 247 9.7 0.0 0.00 0.15 0.00 69 1051.9
20260831131600 20 270 4.8 0.0 0.00 0.15 0.00 69 1051.9
20260831131447 20 247 0.0 0.0 0.00 0.15 0.00 68 1051.9
20260831131326 20 270 0.0 0.0 0.00 0.15 0.00 68 1052.0
20260831131213 20 247 9.7 0.0 0.00 0.15 0.00 67 1051.9
20260831131059 20 270 8.0 0.0 0.00 0.15 0.00 66 1051.9
20260831130930 20 247 17.7 0.0 0.00 0.15 0.00 67 1051.9
20260831130817 20 270 6.4 0.0 0.00 0.15 0.00 67 1052.0
20260831130713 20 292 6.4 0.0 0.00 0.15 0.00 67 1051.9
20260831130607 20 270 14.5 0.0 0.00 0.15 0.00 69 1051.9
20260831130439 20 180 17.7 0.0 0.00 0.15 0.00 70 1051.9
20260831130334 20 225 6.4 0.0 0.00 0.15 0.00 71 1051.9
20260831130228 20 225 0.0 0.0 0.00 0.15 0.00 72 1051.9
20260831130059 20 225 12.9 0.0 0.00 0.15 0.00 73 1051.9
20260831125952 20 247 14.5 0.0 0.00 0.15 0.00 73 1051.9
20260831125839 20 270 9.7 0.0 0.00 0.15 0.00 73 1051.9
20260831125726 20 270 8.0 0.0 0.00 0.15 0.00 73 1051.9
20260831125613 20 270 8.0 0.0 0.00 0.15 0.00 74 1051.9
20260831125459 20 202 8.0 0.0 0.00 0.15 0.00 75 1051.9
20260831125332 20 247 6.4 0.0 0.00 0.15 0.00 75 1051.8
20260831125218 19 247 8.0 0.0 0.00 0.15 0.00 75 1051.8
20260831125113 19 247 1.6 0.0 0.00 0.15 0.00 75 1051.8
20260831125002 19 180 0.0 0.0 0.00 0.15 0.00 75 1051.8
20260831124855 19 247 12.9 0.0 0.00 0.15 0.00 75 1051.8
20260831124742 19 247 8.0 0.0 0.00 0.15 0.00 75 1051.8
20260831124637 19 225 1.6 0.0 0.00 0.15 0.00 77 1051.9
20260831124531 19 270 12.9 0.0 0.00 0.15 0.00 77 1051.8
20260831124410 19 247 0.0 0.0 0.00 0.15 0.00 78 1051.8
20260831124259 19 292 9.7 0.0 0.00 0.15 0.00 78 1051.8
20260831124150 18 270 6.4 0.0 0.00 0.15 0.00 77 1051.8
20260831124038 18 292 8.0 0.0 0.00 0.15 0.00 77 1051.8
20260831123908 18 202 17.7 0.0 0.00 0.15 0.00 77 1051.8
20260831123755 18 292 17.7 0.0 0.00 0.15 0.00 77 1051.8
20260831123641 18 202 8.0 0.0 0.00 0.15 0.00 77 1051.8
20260831123522 18 180 0.0 0.0 0.00 0.15 0.00 77 1051.8
20260831123417 18 202 9.7 0.0 0.00 0.15 0.00 77 1051.8
20260831123310 18 202 8.0 0.0 0.00 0.15 0.00 77 1051.8
20260831123149 18 247 14.5 0.0 0.00 0.15 0.00 77 1051.8
20260831123028 18 180 9.7 0.0 0.00 0.15 0.00 77 1051.8
20260831122915 18 202 11.3 0.0 0.00 0.15 0.00 77 1051.7
20260831122756 18 202 11.3 0.0 0.00 0.15 0.00 77 1051.8
20260831122642 18 202 22.5 0.0 0.00 0.15 0.00 77 1051.8
20260831122538 18 202 0.0 0.0 0.00 0.15 0.00 76 1051.8
20260831122431 17 225 8.0 0.0 0.00 0.15 0.00 76 1051.8
20260831122318 17 180 9.7 0.0 0.00 0.15 0.00 76 1051.8
20260831122156 17 225 11.3 0.0 0.00 0.15 0.00 78 1051.7
20260831122036 17 180 9.7 0.0 0.00 0.15 0.00 78 1051.7
20260831121924 17 202 14.5 0.0 0.00 0.15 0.00 78 1051.7
20260831121809 17 202 9.7 0.0 0.00 0.15 0.00 78 1051.7
20260831121656 17 202 14.5 0.0 0.00 0.15 0.00 78 1051.6
20260831121543 17 180 11.3 0.0 0.00 0.15 0.00 78 1051.6
20260831121438 17 157 12.9 0.0 0.00 0.15 0.00 79 1051.5
20260831121333 17 202 4.8 0.0 0.00 0.15 0.00 79 1051.6
20260831121220 17 202 6.4 0.0 0.00 0.15 0.00 79 1051.6
20260831121112 17 202 1.6 0.0 0.00 0.15 0.00 78 1051.6
20260831121001 17 247 6.4 0.0 0.00 0.15 0.00 78 1051.6
20260831120853 17 225 4.8 0.0 0.00 0.15 0.00 78 1051.6
20260831120739 17 180 12.9 0.0 0.00 0.15 0.00 78 1051.6
20260831120626 17 202 16.1 0.0 0.00 0.15 0.00 78 1051.7
20260831120520 17 180 14.5 0.0 0.00 0.15 0.00 78 1051.8
20260831120357 17 157 20.9 0.0 0.00 0.15 0.00 77 1051.8
20260831120235 17 225 14.5 0.0 0.00 0.15 0.00 76 1051.8
20260831120124 17 202 6.4 0.0 0.00 0.15 0.00 76 1051.8
20260831120017 17 202 0.0 0.0 0.00 0.15 0.00 75 1051.8
20260831115859 17 202 8.0 0.0 0.00 0.15 0.00 75 1051.8
20260831115752 18 225 9.7 0.0 0.00 0.15 0.00 74 1051.8
20260831115630 18 225 4.8 0.0 0.00 0.15 0.00 74 1051.8
20260831115509 18 292 17.7 0.0 0.00 0.15 0.00 76 1051.8
20260831115356 18 247 8.0 0.0 0.00 0.15 0.00 76 1051.8
20260831115242 18 202 8.0 0.0 0.00 0.15 0.00 76 1051.8
20260831115121 19 225 6.4 0.0 0.00 0.15 0.00 75 1051.7
20260831115011 19 225 14.5 0.0 0.00 0.15 0.00 75 1051.7
20260831114905 19 180 24.1 0.0 0.00 0.15 0.00 73 1051.7
20260831114757 19 202 27.4 0.0 0.00 0.15 0.00 72 1051.6
20260831114636 20 247 14.5 0.0 0.00 0.15 0.00 72 1051.5
20260831114523 20 247 17.7 0.0 0.00 0.15 0.00 72 1051.4
20260831114409 20 270 9.7 0.0 0.00 0.15 0.00 71 1051.4
20260831114248 20 202 8.0 0.0 0.00 0.15 0.00 71 1051.4
20260831114135 20 225 25.7 0.0 0.00 0.15 0.00 71 1051.4
20260831114014 20 202 12.9 0.0 0.00 0.15 0.00 71 1051.4
20260831113901 20 202 27.4 0.0 0.00 0.15 0.00 70 1051.4
20260831113750 20 202 9.7 0.0 0.00 0.15 0.00 70 1051.3
20260831113643 20 180 9.7 0.0 0.00 0.15 0.00 70 1051.4
20260831113529 20 180 6.4 0.0 0.00 0.15 0.00 70 1051.3
20260831113410 20 202 17.7 0.0 0.00 0.15 0.00 70 1051.3
20260831113255 20 247 6.4 0.0 0.00 0.15 0.00 69 1051.3
20260831113142 20 202 11.3 0.0 0.00 0.15 0.00 69 1051.4
20260831113029 20 225 22.5 0.0 0.00 0.15 0.00 68 1051.3
20260831112908 21 202 3.2 0.0 0.00 0.15 0.00 67 1051.3
20260831112748 21 202 22.5 0.0 0.00 0.15 0.00 66 1051.3
20260831112635 21 315 11.3 0.0 0.00 0.15 0.00 66 1051.2
20260831112530 21 180 6.4 0.0 0.00 0.15 0.00 65 1051.2
20260831112425 21 202 11.3 0.0 0.00 0.15 0.00 64 1051.2
20260831112310 21 292 0.0 0.0 0.00 0.15 0.00 62 1051.2
20260831112157 22 225 12.9 0.0 0.00 0.15 0.00 62 1051.2
20260831112044 22 270 11.3 0.0 0.00 0.15 0.00 61 1051.2
20260831111930 22 180 9.7 0.0 0.00 0.15 0.00 60 1051.2
20260831111811 23 135 14.5 0.0 0.00 0.15 0.00 60 1051.2
20260831111650 23 202 30.6 0.0 0.00 0.15 0.00 61 1051.2
20260831111545 23 225 22.5 0.0 0.00 0.15 0.00 61 1051.2
20260831111433 23 247 11.3 0.0 0.00 0.15 0.00 61 1051.2
20260831111327 23 247 19.3 0.0 0.00 0.15 0.00 62 1051.2
20260831111214 23 247 11.3 0.0 0.00 0.15 0.00 62 1051.3
20260831111102 23 247 8.0 0.0 0.00 0.15 0.00 63 1051.2
20260831110955 23 180 12.9 0.0 0.00 0.15 0.00 63 1051.2
20260831110841 23 270 4.8 0.0 0.00 0.15 0.00 61 1051.2
20260831110720 23 157 22.5 0.0 0.00 0.15 0.00 61 1051.3
20260831110559 23 180 9.7 0.0 0.00 0.15 0.00 61 1051.2
20260831110438 23 202 17.7 0.0 0.00 0.15 0.00 61 1051.2
20260831110312 23 202 11.3 0.0 0.00 0.15 0.00 61 1051.2
20260831110205 23 225 12.9 0.0 0.00 0.15 0.00 62 1051.2
20260831110052 23 247 6.4 0.0 0.00 0.15 0.00 62 1051.2
20260831105939 23 180 16.1 0.0 0.00 0.15 0.00 62 1051.2
20260831105826 23 270 19.3 0.0 0.00 0.15 0.00 63 1051.2
20260831105712 23 270 6.4 0.0 0.00 0.15 0.00 61 1051.2
20260831105558 23 247 20.9 0.0 0.00 0.15 0.00 63 1051.3
20260831105439 23 270 9.7 0.0 0.00 0.15 0.00 64 1051.2
20260831105332 23 225 16.1 0.0 0.00 0.15 0.00 64 1051.2
20260831105212 23 225 12.9 0.0 0.00 0.15 0.00 63 1051.2
20260831105057 23 292 14.5 0.0 0.00 0.15 0.00 64 1051.3
20260831104945 23 292 8.0 0.0 0.00 0.15 0.00 64 1051.3
20260831104834 23 180 11.3 0.0 0.00 0.15 0.00 64 1051.4
20260831104727 23 247 4.8 0.0 0.00 0.15 0.00 65 1051.4
20260831104614 22 225 11.3 0.0 0.00 0.15 0.00 66 1051.3
20260831104509 22 180 12.9 0.0 0.00 0.15 0.00 65 1051.3
20260831104355 22 247 9.7 0.0 0.00 0.15 0.00 66 1051.4
20260831104237 22 225 24.1 0.0 0.00 0.15 0.00 66 1051.3
20260831104129 22 202 30.6 0.0 0.00 0.15 0.00 66 1051.3
20260831104016 22 180 14.5 0.0 0.00 0.15 0.00 68 1051.2
20260831103911 22 247 4.8 0.0 0.00 0.15 0.00 68 1051.4
20260831103752 22 180 6.4 0.0 0.00 0.15 0.00 68 1051.2
20260831103645 22 247 11.3 0.0 0.00 0.15 0.00 69 1051.2
20260831103534 22 202 8.0 0.0 0.00 0.15 0.00 68 1051.4
20260831103426 22 225 6.4 0.0 0.00 0.15 0.00 67 1051.4
20260831103313 22 157 16.1 0.0 0.00 0.15 0.00 68 1051.4
20260831103153 22 247 9.7 0.0 0.00 0.15 0.00 69 1051.3
20260831103031 22 180 11.3 0.0 0.00 0.15 0.00 68 1051.5
20260831102910 22 225 9.7 0.0 0.00 0.15 0.00 68 1051.5
20260831102757 22 225 12.9 0.0 0.00 0.15 0.00 68 1051.5
20260831102635 22 292 0.0 0.0 0.00 0.15 0.00 69 1051.5
20260831102517 22 225 11.3 0.0 0.00 0.15 0.00 69 1051.5
20260831102410 22 202 12.9 0.0 0.00 0.15 0.00 68 1051.4
20260831102257 22 202 27.4 0.0 0.00 0.15 0.00 68 1051.5
20260831102143 22 180 9.7 0.0 0.00 0.15 0.00 69 1051.4
20260831102022 21 180 8.0 0.0 0.00 0.15 0.00 72 1051.5
20260831101909 21 180 9.7 0.0 0.00 0.15 0.00 73 1051.4
20260831101741 21 247 25.7 0.0 0.00 0.15 0.00 73 1051.5
20260831101633 21 157 9.7 0.0 0.00 0.15 0.00 74 1051.5
20260831101519 21 180 11.3 0.0 0.00 0.15 0.00 75 1051.4
20260831101358 21 270 0.0 0.0 0.00 0.15 0.00 75 1051.5
20260831101245 21 247 4.8 0.0 0.00 0.15 0.00 75 1051.5
20260831101133 21 225 20.9 0.0 0.00 0.15 0.00 75 1051.5
20260831101027 21 225 3.2 0.0 0.00 0.15 0.00 74 1051.6
20260831100922 21 180 14.5 0.0 0.00 0.15 0.00 72 1051.6
20260831100816 21 270 6.4 0.0 0.00 0.15 0.00 71 1051.5
20260831100710 21 225 19.3 0.0 0.00 0.15 0.00 71 1051.6
20260831100559 21 225 9.7 0.0 0.00 0.15 0.00 70 1051.5
20260831100454 21 225 24.1 0.0 0.00 0.15 0.00 70 1051.5
20260831100338 21 247 4.8 0.0 0.00 0.15 0.00 70 1051.6
20260831100217 21 247 12.9 0.0 0.00 0.15 0.00 71 1051.7
20260831100050 21 247 12.9 0.0 0.00 0.15 0.00 71 1051.6
20260831095943 21 202 11.3 0.0 0.00 0.15 0.00 71 1051.7
20260831095833 21 180 24.1 0.0 0.00 0.15 0.00 71 1051.7
20260831095726 21 157 9.7 0.0 0.00 0.15 0.00 70 1051.7
20260831095620 21 225 14.5 0.0 0.00 0.15 0.00 71 1051.7
20260831095516 21 180 12.9 0.0 0.00 0.15 0.00 71 1051.7
20260831095410 21 180 9.7 0.0 0.00 0.15 0.00 71 1051.6
20260831095258 21 225 16.1 0.0 0.00 0.15 0.00 71 1051.7
20260831095151 21 225 11.3 0.0 0.00 0.15 0.00 71 1051.6
20260831095031 21 202 9.7 0.0 0.00 0.15 0.00 70 1051.7
20260831094919 21 202 12.9 0.0 0.00 0.15 0.00 70 1051.7
20260831094805 21 270 16.1 0.0 0.00 0.15 0.00 70 1051.6
20260831094653 21 180 12.9 0.0 0.00 0.15 0.00 70 1051.7
20260831094546 21 225 25.7 0.0 0.00 0.15 0.00 72 1051.8
20260831094425 21 225 8.0 0.0 0.00 0.15 0.00 71 1051.8
20260831094303 21 270 9.7 0.0 0.00 0.15 0.00 72 1051.8
20260831094153 21 202 17.7 0.0 0.00 0.15 0.00 72 1051.8
20260831094047 21 202 8.0 0.0 0.00 0.15 0.00 72 1051.8
20260831093941 21 247 11.3 0.0 0.00 0.15 0.00 72 1051.9
20260831093838 21 180 12.9 0.0 0.00 0.15 0.00 71 1051.8
20260831093730 21 180 17.7 0.0 0.00 0.15 0.00 70 1051.9
20260831093609 21 225 9.7 0.0 0.00 0.15 0.00 70 1051.8
20260831093458 21 202 9.7 0.0 0.00 0.15 0.00 69 1051.8
20260831093351 21 247 8.0 0.0 0.00 0.15 0.00 69 1051.8
20260831093229 22 270 11.3 0.0 0.00 0.15 0.00 68 1051.8
20260831093100 22 157 9.7 0.0 0.00 0.15 0.00 68 1051.8
20260831092947 22 225 6.4 0.0 0.00 0.15 0.00 70 1051.7
20260831092842 21 202 8.0 0.0 0.00 0.15 0.00 72 1051.7
20260831092728 21 202 20.9 0.0 0.00 0.15 0.00 72 1051.7
20260831092607 21 247 0.0 0.0 0.00 0.15 0.00 73 1051.7
20260831092453 21 202 14.5 0.0 0.00 0.15 0.00 74 1051.8
20260831092339 21 247 12.9 0.0 0.00 0.15 0.00 73 1051.7
20260831092226 20 180 9.7 0.0 0.00 0.15 0.00 73 1051.7
20260831092115 20 225 6.4 0.0 0.00 0.15 0.00 73 1051.7
20260831092008 21 202 9.7 0.0 0.00 0.15 0.00 71 1051.7
20260831091854 21 180 14.5 0.0 0.00 0.15 0.00 71 1051.7
20260831091742 21 202 11.3 0.0 0.00 0.15 0.00 70 1051.7
20260831091628 21 180 12.9 0.0 0.00 0.15 0.00 69 1051.6
20260831091506 21 180 9.7 0.0 0.00 0.15 0.00 69 1051.7
20260831091346 21 180 24.1 0.0 0.00 0.15 0.00 68 1051.7
20260831091226 22 202 20.9 0.0 0.00 0.15 0.00 67 1051.7
20260831091121 22 180 9.7 0.0 0.00 0.15 0.00 67 1051.7
20260831091015 22 225 9.7 0.0 0.00 0.15 0.00 67 1051.6
20260831090846 22 157 8.0 0.0 0.00 0.15 0.00 66 1051.6
20260831090733 23 225 19.3 0.0 0.00 0.15 0.00 66 1051.5
20260831090629 23 180 12.9 0.0 0.00 0.15 0.00 66 1051.5
20260831090523 23 180 12.9 0.0 0.00 0.15 0.00 65 1051.5
20260831090419 23 247 8.0 0.0 0.00 0.15 0.00 66 1051.4
20260831090313 23 225 11.3 0.0 0.00 0.15 0.00 66 1051.4
20260831090209 23 202 16.1 0.0 0.00 0.15 0.00 66 1051.4
20260831090103 23 225 9.7 0.0 0.00 0.15 0.00 65 1051.4
20260831085957 23 202 16.1 0.0 0.00 0.20 0.00 66 1051.4
20260831085839 23 247 16.1 0.0 0.00 0.20 0.00 67 1051.4
20260831085731 23 180 6.4 0.0 0.00 0.20 0.00 67 1051.4
20260831085610 23 157 12.9 0.0 0.00 0.20 0.00 66 1051.3
20260831085450 23 202 9.7 0.0 0.00 0.20 0.00 67 1051.4
20260831085345 23 225 27.4 0.0 0.00 0.20 0.00 66 1051.3
20260831085223 23 180 8.0 0.0 0.00 0.20 0.00 67 1051.3
20260831085110 23 202 11.3 0.0 0.00 0.20 0.00 68 1051.4
20260831084941 22 202 12.9 0.0 0.00 0.20 0.00 69 1051.3
20260831084819 22 225 12.9 0.0 0.00 0.20 0.00 69 1051.4
20260831084658 22 247 9.7 0.0 0.00 0.20 0.00 69 1051.4
20260831084548 22 202 9.7 0.0 0.00 0.20 0.00 70 1051.4
20260831084441 22 247 8.0 0.0 0.00 0.20 0.00 70 1051.4
20260831084319 22 292 14.5 0.0 0.00 0.20 0.00 71 1051.4
20260831084207 22 225 8.0 0.0 0.00 0.20 0.00 72 1051.3
20260831084100 22 270 16.1 0.0 0.00 0.20 0.00 73 1051.4
20260831083948 22 225 17.7 0.0 0.00 0.20 0.00 74 1051.4
20260831083834 21 180 12.9 0.0 0.00 0.20 0.00 76 1051.3
20260831083713 21 180 4.8 0.0 0.00 0.20 0.00 77 1051.4
20260831083553 21 225 9.7 0.0 0.00 0.20 0.00 77 1051.3
20260831083442 21 202 11.3 0.0 0.00 0.20 0.00 77 1051.3
20260831083336 20 202 11.3 0.0 0.00 0.20 0.00 78 1051.4
20260831083215 20 180 25.7 0.0 0.00 0.20 0.00 79 1051.4
20260831083054 20 202 14.5 0.0 0.00 0.20 0.00 79 1051.4
20260831082923 20 292 14.5 0.0 0.00 0.20 0.00 78 1051.4
20260831082759 20 202 9.7 0.0 0.05 0.20 0.00 79 1051.4
20260831082645 20 157 11.3 0.0 0.05 0.20 0.00 79 1051.3
20260831082530 20 247 6.4 0.0 0.05 0.20 0.00 80 1051.4
20260831082407 20 225 9.7 0.0 0.05 0.20 0.00 80 1051.3
20260831082254 20 270 9.7 0.0 0.05 0.20 0.00 80 1051.3
20260831082132 20 225 14.5 0.0 0.05 0.20 0.00 79 1051.4
20260831082009 20 225 14.5 0.0 0.05 0.20 0.00 79 1051.3
20260831081859 20 135 3.2 0.0 0.05 0.20 0.00 80 1051.3
20260831081753 20 180 14.5 0.0 0.05 0.20 0.00 80 1051.5
20260831081631 20 202 8.0 0.0 0.05 0.20 0.00 81 1051.4
20260831081511 19 202 12.9 0.0 0.05 0.20 0.00 80 1051.3
20260831081358 19 180 12.9 0.0 0.05 0.20 0.00 81 1051.4
20260831081243 20 180 16.1 0.0 0.05 0.20 0.00 81 1051.4
20260831081114 19 135 4.8 0.0 0.05 0.20 0.00 81 1051.5
20260831081001 19 225 9.7 0.0 0.05 0.20 0.00 81 1051.4
20260831080848 19 202 6.4 0.0 0.05 0.20 0.00 81 1051.5
20260831080728 19 180 25.7 0.0 0.05 0.20 0.00 81 1051.5
20260831080622 19 247 20.9 0.0 0.05 0.20 0.00 80 1051.5
20260831080503 19 157 22.5 0.0 0.05 0.20 0.00 80 1051.5
20260831080355 19 180 19.3 0.0 0.05 0.20 0.00 80 1051.6
20260831080235 19 202 11.3 0.0 0.05 0.20 0.00 80 1051.6
20260831080121 19 157 17.7 0.0 0.05 0.20 0.00 80 1051.6
20260831075953 19 157 20.9 0.0 0.05 0.20 0.00 80 1051.6
20260831075846 19 225 17.7 0.0 0.05 0.20 0.00 80 1051.4
20260831075740 19 202 12.9 0.0 0.05 0.20 0.00 80 1051.5
20260831075626 20 157 25.7 0.0 0.05 0.20 0.00 79 1051.6
20260831075521 20 202 12.9 0.0 0.05 0.20 0.00 79 1051.5
20260831075414 20 157 12.9 0.0 0.05 0.20 0.00 78 1051.6
20260831075308 20 225 9.7 0.0 0.05 0.20 0.00 78 1051.6
20260831075148 20 180 11.3 0.0 0.05 0.20 0.00 77 1051.6
20260831075043 20 225 19.3 0.0 0.05 0.20 0.00 77 1051.6
20260831074930 20 247 9.7 0.0 0.05 0.20 0.00 76 1051.6
20260831074816 21 225 17.7 0.0 0.05 0.20 0.00 75 1051.6
20260831074654 21 202 14.5 0.0 0.05 0.20 0.00 76 1051.6
20260831074533 21 180 3.2 0.0 0.05 0.20 0.00 77 1051.6
20260831074404 21 202 14.5 0.0 0.05 0.20 0.00 76 1051.5
20260831074251 21 202 19.3 0.0 0.05 0.20 0.00 75 1051.6
20260831074138 21 180 16.1 0.0 0.05 0.20 0.00 74 1051.5
20260831074018 21 202 32.2 0.0 0.05 0.20 0.00 75 1051.6
20260831073912 21 202 0.0 0.0 0.05 0.20 0.00 79 1051.6
20260831073404 19 180 183.5 0.0 0.05 0.20 0.00 82 1051.5
20260831072741 19 180 183.5 0.0 0.00 0.15 0.00 82 1051.6
20260831072111 20 180 183.5 0.0 0.00 0.15 0.00 81 1051.5
20260831071506 20 180 183.5 0.0 0.00 0.15 0.00 81 1051.3
20260831070900 20 180 183.5 0.0 0.00 0.15 0.00 88 1051.3
20260831070237 18 180 183.5 0.0 0.00 0.15 0.00 92 1051.4
20260831065615 17 180 183.5 0.0 0.00 0.15 0.00 92 1051.6
20260831065030 17 180 183.5 0.0 0.00 0.15 0.00 92 1051.6
20260831064416 17 180 183.5 0.0 0.00 0.15 0.00 93 1051.6
20260831063819 16 180 183.5 0.0 0.00 0.15 0.00 93 1051.6
20260831063221 16 180 183.5 0.0 0.00 0.15 0.00 94 1051.6
20260831062608 16 180 183.5 0.0 0.00 0.15 0.00 94 1051.5
20260831061953 16 180 183.5 0.0 0.00 0.15 0.00 94 1051.6
20260831061358 17 180 183.5 0.0 0.00 0.15 0.00 94 1051.6
20260831060750 17 180 183.5 0.0 0.00 0.15 0.00 94 1051.7
20260831060145 17 180 183.5 0.0 0.00 0.15 0.00 94 1051.7
20260831055541 17 180 183.5 0.0 0.00 0.15 0.00 94 1051.7
20260831054943 17 180 183.5 0.0 0.00 0.15 0.00 94 1051.7
20260831054330 16 180 183.5 0.0 0.00 0.15 0.00 94 1051.4
20260831053730 16 180 183.5 0.0 0.00 0.15 0.00 95 1051.7